Regional Weather Roundup
Issued by NWS

Home | Current Version | Previous Version | Text Only | Print | Product List | Glossary Off
Versions: 1 2 3 4 5 6 7 8 9 10 11 12 13 14 15 16 17 18 19 20 21 22 23 24 25 26 27 28 29 30 31 32 33 34 35 36 37 38 39 40 41 42 43 44 45 46 47 48 49 50

000
ASUS43 KOAX 211102
RWRNE

WEATHER ROUNDUP FOR NEBRASKA
NATIONAL WEATHER SERVICE OMAHA NE
600 AM CDT THU SEP 21 2017

NOTES: SATELLITE DATA IS BEING USED TO AUGMENT CLOUD COVER ABOVE
       12000 FEET.
       "FAIR" INDICATES FEW OR NO CLOUDS BELOW 12,000 FEET WITH NO
       SIGNIFICANT WEATHER AND/OR OBSTRUCTIONS TO VISIBILITY.


NEZ001>004-019>022-054>056-211200-
NEBRASKA PANHANDLE

CITY           SKY/WX    TMP DP  RH WIND       PRES   REMARKS
SCOTTSBLUFF    CLEAR     51  37  58 E13       29.74F
ALLIANCE       CLEAR     51  40  65 SE12      29.77S
CHADRON        CLEAR     62  37  39 S36G46    29.65F
GORDON         FAIR      58  43  56 S12G20    29.76F
KIMBALL        CLOUDY    47  37  67 S9        29.79S
SIDNEY         CLEAR     47  36  65 SE12      29.78F
$$

NEZ057>060-069>072-079>082-211200-
SOUTHWEST NEBRASKA

CITY           SKY/WX    TMP DP  RH WIND       PRES   REMARKS
NORTH PLATTE   CLEAR     48  45  89 SE9       29.81F
IMPERIAL       CLEAR     50  42  74 SE9       29.79F
LEXINGTON      CLEAR     50  46  86 CALM      29.83S
MCCOOK         CLEAR     49  45  86 NE7       29.80F
OGALLALA       CLEAR     45  39  81 CALM      29.79F
$$

NEZ005>010-023>029-035>040-094-211200-
NORTH CENTRAL NEBRASKA

CITY           SKY/WX    TMP DP  RH WIND       PRES   REMARKS
VALENTINE      CLEAR     57  44  62 S14       29.80F
AINSWORTH      CLEAR     55  48  76 S13       29.82S
BROKEN BOW     CLEAR     48  43  82 CALM      29.83F
O`NEILL        CLEAR     52  48  86 SE6       29.85F
ORD            CLEAR     47  44  90 CALM      29.82F
THEDFORD       CLEAR     52  46  79 SE7       29.82F
$$

NEZ041-046>049-061>064-073>077-083>087-211200-
SOUTH CENTRAL NEBRASKA

CITY           SKY/WX    TMP DP  RH WIND       PRES   REMARKS
GRAND ISLAND   CLEAR     52  51  97 NE3       29.82F
AURORA         CLEAR     53  51  95 NE5       29.82F
HASTINGS       CLEAR     53  49  86 CALM      29.82F
HEBRON         CLEAR     62  57  85 CALM      29.81S
HOLDREGE       CLEAR     50  47  90 CALM      29.82F
KEARNEY        CLEAR     51  48  89 NE5       29.82F
YORK           CLEAR     59  55  88 E6        29.82F
$$

NEZ011>018-030>034-042>045-211200-
NORTHEAST NEBRASKA

CITY           SKY/WX    TMP DP  RH WIND       PRES   REMARKS
NORFOLK        MOCLDY    56  50  80 E6        29.85F
ALBION         CLEAR     50  49  96 CALM      29.85F
BLAIR          PTCLDY    63  57  80 NE8       29.85F
COLUMBUS       PTCLDY    57  52  83 E9        29.84F
FREMONT        PTCLDY    61  55  80 E6        29.85F
TEKAMAH        MOCLDY    56  53  90 NW6       29.87S
WAYNE          PTCLDY    51  48  91 CALM      29.87F
$$

NEZ050>053-065>068-078-088>093-211200-
SOUTHEAST NEBRASKA

CITY           SKY/WX    TMP DP  RH WIND       PRES   REMARKS
LINCOLN        CLEAR     59  55  87 N5        29.83F
OMAHA EPPLEY   PTCLDY    69  58  67 E8        29.86R
BEATRICE       CLEAR     68  63  84 E3        29.82F
FALLS CITY     CLEAR     69  67  93 SE6       29.83S
NEBRASKA CITY  CLEAR     66  64  96 SE5       29.85S
PLATTSMOUTH    CLEAR     66  61  84 E6        29.85S
$$

NEZ044-045-051>053-067-211200-
OMAHA AREA

CITY           SKY/WX    TMP DP  RH WIND       PRES   REMARKS
OMAHA EPPLEY   PTCLDY    69  58  67 E8        29.86R
BLAIR          PTCLDY    63  57  80 NE8       29.85F
FREMONT        PTCLDY    61  55  80 E6        29.85F
MILLARD        MOCLDY    69  60  73 E5        29.84F
OFFUTT AFB     CLEAR     68  59  73 E8        29.84F
PLATTSMOUTH    CLEAR     66  61  84 E6        29.85S
WAHOO          FAIR      58  56  94 N5        29.84F
$$



USA.gov is the U.S. government's official web portal to all federal, state and local government web resources and services.